Location: Agendoh
(31.0664°N, 8.9343°W)
Time: 02:59:21
(UTC+00:00)

Lacrosse 5 - Pass Details

Date: 02 July 2022
Orbit: 714 x 724 km, 57.0° (Epoch: 09 March)

Event Time Altitude Azimuth Distance (km) Brightness Sun altitude
Rises 22:09:05 0° 326° (NW) 3,137 6.6 -25.0°
Reaches altitude 10° 22:11:30 10° 330° (NNW) 2,213 5.4 -25.3°
Maximum altitude 22:16:32 59° 50° (NE) 830 2.1 -26.0°
Enters shadow 22:16:35 59° 53° (NE) 830 2.1 -26.0°
